User: anonymous   Login
Location: Unspecified
(0.0000°N, 0.0000°E)
Time: 10:40:11
(UTC+00:00)
Language:

Vela 2A - Orbit

View from above orbital plane
View from above orbital plane
View from above satellite
View from above satellite

Ground track
Ground track

The orbit data is extracted from the following two-line orbital elements,

1 00836U 64040A   14359.43249993  .00000149  00000-0  00000+0 0  5478
2 00836 082.0367 324.5379 3311091 259.0156 000.3693 00.23906066 44061
Epoch (UTC): 25 December 2014 10:22:47
Eccentricity: 0.3311091
inclination: 82.0367°
perigee height: 66974 km
apogee height: 139595 km
right ascension of ascending node: 324.5379°
argument of perigee: 259.0156°
revolutions per day: 0.23906066
mean anomaly at epoch: 0.3693°
orbit number at epoch: 4406

The dashed part of the orbit path shows where the satellite is in the earth's shadow,  

DLR